This is the latest recevied weather packets stored in our database for station/object K6GMW. If no packets are shown the sender has not sent any weather packets the latest 10 day(s).
| Time | Temp. | Humidity | Pressure | Rain* | Wind** | Luminosity | Snow |
|---|---|---|---|---|---|---|---|
| 1788095907 | 26.11° C | 75% | 1019 hPa | 0 mm | - | 83 W/m² | - |
| 1788095607 | 25.56° C | 76% | 1018.5 hPa | 0 mm | - | 95 W/m² | - |
| 1788095302 | 25° C | 77% | 1018.6 hPa | 0 mm | - | 76 W/m² | - |
| 1788094998 | 25° C | 78% | 1018.8 hPa | 0 mm | - | 72 W/m² | - |
| 1788094696 | 24.44° C | 80% | 1018.5 hPa | 0 mm | - | 70 W/m² | - |
| 1788094392 | 23.89° C | 80% | 1018.4 hPa | 0 mm | - | 65 W/m² | - |
| 1788094089 | 23.89° C | 81% | 1018.3 hPa | 0 mm | - | 63 W/m² | - |
| 1788093785 | 23.89° C | 80% | 1018.3 hPa | 0 mm | - | 54 W/m² | - |
| 1788093482 | 23.33° C | 80% | 1018.3 hPa | 0 mm | - | 50 W/m² | - |
| 1788093177 | 23.33° C | 80% | 1018.2 hPa | 0 mm | - | 44 W/m² | - |
| 1788092875 | 23.33° C | 79% | 1018.2 hPa | 0 mm | - | 39 W/m² | - |
| 1788092570 | 23.89° C | 80% | 1018.2 hPa | 0 mm | - | 33 W/m² | - |
| 1788092265 | 23.33° C | 80% | 1018.1 hPa | 0 mm | - | 28 W/m² | - |
| 1788091970 | 23.33° C | 80% | 1018.2 hPa | 0 mm | - | 21 W/m² | - |
| 1788091660 | 23.89° C | 79% | 1017.9 hPa | 0 mm | - | 16 W/m² | - |
| 1788091356 | 23.89° C | 79% | 1017.9 hPa | 0 mm | - | 11 W/m² | - |
| 1788091052 | 23.89° C | 79% | 1017.9 hPa | 0 mm | - | 7 W/m² | - |
| 1788090747 | 23.89° C | 78% | 1017.6 hPa | 0 mm | - | 4 W/m² | - |
| 1788090444 | 23.89° C | 79% | 1017.8 hPa | 0 mm | - | 2 W/m² | - |
| 1788090144 | 23.33° C | 79% | 1017.6 hPa | 0 mm | - | 1 W/m² | - |
| 1788089839 | 23.33° C | 79% | 1017.8 hPa | 0 mm | - | 0 W/m² | - |
| 1788089534 | 23.33° C | 79% | 1017.6 hPa | 0 mm | - | 0 W/m² | - |
| 1788089230 | 23.33° C | 78% | 1017.5 hPa | 0 mm | - | 0 W/m² | - |
| 1788088926 | 23.33° C | 78% | 1017.5 hPa | 0 mm | - | 0 W/m² | - |
| 1788088622 | 23.33° C | 77% | 1017.5 hPa | 0 mm | - | 0 W/m² | - |
* Rain latest hour (hover to see other rain measurements)
** Current wind speed in m/s (hover to see current wind gust speed)